Location: Newark
(25.3833°N, 97.4000°E)
Time: 01:29:46
(UTC+00:00)

Envisat - Visible Passes

Search period start: 13 December 2019 00:00
Search period end: 23 December 2019 00:00
Orbit: 764 x 766 km, 98.1° (Epoch: 12 December)

Date Brightness Start Highest point End Pass type
(mag) Time Alt. Az. Time Alt. Az. Time Alt. Az.
13 Dec 4.8 12:20:19 10° SSW 12:24:47 31° W 12:29:17 10° NW visible
13 Dec 6.2 23:00:34 10° ENE 23:02:58 13° E 23:05:22 10° ESE visible
14 Dec 3.1 11:42:56 10° S 11:48:00 83° WSW 11:53:05 10° NNW visible
15 Dec 3.5 11:06:42 10° SE 11:11:22 38° ENE 11:16:01 10° N visible
15 Dec 5.9 12:47:18 10° SW 12:50:23 16° W 12:53:28 10° WNW visible
15 Dec 5.5 23:24:21 10° NE 23:28:35 26° E 23:32:48 10° SSE visible
16 Dec 4.3 12:08:43 10° S 12:13:29 41° W 12:18:17 10° NNW visible
17 Dec 2.9 11:31:41 10° SSE 11:36:44 75° ENE 11:41:48 10° N visible
18 Dec 5.5 12:35:14 10° SW 12:39:02 21° W 12:42:53 10° NW visible
18 Dec 5.9 23:13:35 10° NE 23:17:16 20° E 23:20:55 10° SE visible
19 Dec 3.7 11:57:14 10° S 12:02:12 56° W 12:07:11 10° NNW visible
20 Dec 3.1 11:20:33 10° SSE 11:25:29 56° ENE 11:30:27 10° N visible
20 Dec 6.3 13:03:53 10° WSW 13:04:41 10° W 13:05:28 10° W visible
20 Dec 4.7 23:38:05 10° NNE 23:42:49 39° E 23:47:32 10° SSE visible
21 Dec 5.0 12:23:25 10° SSW 12:27:43 28° W 12:32:04 10° NW visible
21 Dec 6.1 23:03:04 10° ENE 23:05:55 15° E 23:08:46 10° SE visible
22 Dec 3.2 11:45:52 10° S 11:50:55 75° WSW 11:56:00 10° NNW visible
